Content
SEND FEEDBACK

Daily
Averages
Monthly
Summary
United States of America

UPI, GUAM


Home > North America > United States > Guam
Elevation: 53 feet     Latitude: 13 34N     Longitude: 144 55E

WEATHER
 
SELECT A DAY
Number of Records: 209,044;   Date Range: 1/1/95 - 7/29/14
 
SHARE

PRINT THIS DATA

[ ← Previous Day ]
WEATHER ALMANAC - JUNE 23, 2013
[ Next Day → ]
[ °C ]   °F
We're sorry. There is no daily almanac available for Upi, Guam on June 23, 2013.
WEATHER BY HOUR - JUNE 23, 2013
[ °C ]   °F
Local TimeTemperatureDewpointHumidityBarometerVisibilityWind DirectionWind SpeedGust SpeedPrecipitationEventsConditions
1:54 AM82.9 °F77.0 °F82 %29.86 in10.0 miEast (80°)6.9 mph0.04 inPartly Cloudy
2:54 AM82.0 °F77.0 °F85 %29.86 in10.0 miEast (80°)6.9 mph0.02 inScattered Clouds
3:54 AM82.9 °F77.0 °F82 %29.86 in10.0 miENE (70°)10.4 mphPartly Cloudy
4:54 AM82.9 °F75.9 °F79 %29.86 in10.0 miEast (80°)10.4 mphPartly Cloudy
5:54 AM82.9 °F75.0 °F77 %29.87 in10.0 miEast (90°)8.1 mphClear
6:54 AM84.0 °F75.0 °F74 %29.89 in10.0 miEast (80°)9.2 mphPartly Cloudy
7:54 AM84.9 °F75.9 °F74 %29.89 in10.0 miENE (70°)12.7 mph19.6 mphPartly Cloudy
8:54 AM87.1 °F75.0 °F67 %29.90 in10.0 miEast (80°)17.3 mph21.9 mphScattered Clouds
9:54 AM88.0 °F75.0 °F65 %29.90 in10.0 miEast (100°)16.1 mph23.0 mphScattered Clouds
10:54 AM89.1 °F73.9 °F61 %29.89 in10.0 miEast (80°)19.6 mph24.2 mphPartly Cloudy
11:54 AM89.1 °F75.0 °F63 %29.87 in10.0 miEast (80°)15.0 mph21.9 mphScattered Clouds
12:54 PM90.0 °F75.0 °F61 %29.86 in10.0 miEast (100°)13.8 mph25.3 mphScattered Clouds
1:54 PM91.0 °F75.0 °F59 %29.85 in10.0 miESE (110°)11.5 mph23.0 mphScattered Clouds
2:54 PM90.0 °F75.0 °F61 %29.83 in10.0 miEast (90°)13.8 mph25.3 mphScattered Clouds
3:54 PM90.0 °F75.0 °F61 %29.83 in10.0 miEast (80°)15.0 mph21.9 mphScattered Clouds
4:31 PM89.6 °F75.2 °F62 %29.85 in10.0 miEast (90°)15.0 mph21.9 mphMostly Cloudy
4:42 PM87.8 °F75.2 °F66 %29.85 in10.0 miEast (80°)13.8 mph20.7 mphScattered Clouds
4:54 PM88.0 °F75.0 °F65 %29.82 in10.0 miEast (100°)11.5 mph21.9 mphPartly Cloudy
5:54 PM87.1 °F75.0 °F67 %29.84 in10.0 miEast (90°)12.7 mphPartly Cloudy
6:54 PM86.0 °F75.0 °F70 %29.86 in10.0 miEast (100°)11.5 mphPartly Cloudy
7:54 PM84.9 °F75.0 °F72 %29.88 in10.0 miEast (100°)10.4 mphPartly Cloudy
8:54 PM84.9 °F75.9 °F74 %29.90 in10.0 miEast (80°)8.1 mphScattered Clouds
9:54 PM84.9 °F75.9 °F74 %29.92 in6.0 miSE (130°)11.5 mph18.4 mphRainRain
10:03 PM82.4 °F77.0 °F84 %29.94 in7.0 miESE (110°)8.1 mph0.01 inRainLight Rain
10:54 PM80.1 °F75.0 °F85 %29.93 in6.0 miESE (110°)5.8 mph0.09 inRainLight Rain
11:54 PM82.0 °F75.0 °F79 %29.91 in10.0 miEast (80°)10.4 mph0.01 inPartly Cloudy
Hourly data recorded from PGUM, located miles away from Upi, Guam







STORIES FROM OUR PARTNERS